Volver al catálogo

PIESAT-2 09

ActivoCienciaSSO
NORAD 62333·PAYLOAD·🇨🇳 China

Lanzado Dec 16, 2024 desde Taiyuan Satellite Launch Center

Loading…

Próximos Pases (próximas 24 horas)

TLE

ActualizadoSource: Space-Track

Época: Sep 14, 2026, 14:16 UTC

1 62333U 24241A   26257.59446770  .00007030  00000-0  37624-3 0  9999
2 62333  97.5364 204.4107 0001931  96.3482 263.7970 15.15350260 96330

Sigue PIESAT-2 09 en tiempo real con AllMySat

Download on the App Store